User: anonymous   Login
Location: ?????
(54.9266°N, 38.5527°E)
Time: 03:06:38
(UTC+00:00)
Language:

SAR-Lupe-4 - Orbit

View from above orbital plane
View from above orbital plane
View from above satellite
View from above satellite

Ground track
Ground track

The orbit data is extracted from the following two-line orbital elements,

1 32750U 08014A   24093.09172721 0.00002700  00000-0  96244-4 0    08
2 32750  98.0739  42.0362 0003964 124.1817 235.8182 15.28934177    04
Epoch (UTC): 02 April 2024 02:12:05
Eccentricity: 0.0003964
inclination: 98.0739°
perigee height: 476 km
apogee height: 482 km
right ascension of ascending node: 42.0362°
argument of perigee: 124.1817°
revolutions per day: 15.28934177
mean anomaly at epoch: 235.8182°
orbit number at epoch: 0

The dashed part of the orbit path shows where the satellite is in the earth's shadow,  

DLR